DW0268 Weather Reports


Display with metric or nautical units.
time (UTC)temp
F
wind
direction
speed
MPH
gust
MPH
rain 1hr
in
rain 24hr
in
rain mn
in
humidity
%
barometer
mb
20210802223149 80 48 7.0 14.0 0.00 0.00 0.00 68 1017.5
20210802221614 80 33 6.0 13.0 0.00 0.00 0.00 70 1017.6
20210802220104 81 60 9.0 13.0 0.00 0.00 0.00 67 1017.7
20210802214542 81 59 5.0 12.0 0.00 0.00 0.00 71 1017.7
20210802213109 80 62 6.0 14.0 0.00 0.00 0.00 69 1017.6
20210802211542 81 44 4.0 12.0 0.00 0.00 0.00 68 1017.6
20210802210118 81 360 4.0 13.0 0.00 0.00 0.00 70 1017.6
20210802204528 81 5 6.0 11.0 0.00 0.00 0.00 69 1017.6
20210802203040 81 32 4.0 12.0 0.00 0.00 0.00 71 1018.0
20210802201530 81 53 5.0 12.0 0.00 0.00 0.00 69 1018.1
20210802200014 81 360 5.0 11.0 0.00 0.00 0.00 72 1018.4
20210802194524 81 65 10.0 14.0 0.00 0.00 0.00 70 1018.5
20210802193027 81 36 5.0 10.0 0.00 0.00 0.00 73 1018.7
20210802191509 82 54 5.0 11.0 0.00 0.00 0.00 70 1018.7
20210802190010 82 67 3.0 9.0 0.00 0.00 0.00 72 1018.9
20210802184511 81 63 4.0 11.0 0.00 0.00 0.00 72 1018.9
20210802181518 80 32 7.0 12.0 0.00 0.00 0.00 71 1019.1
20210802180003 81 74 5.0 10.0 0.00 0.00 0.00 75 1019.2
20210802174816 80 39 4.0 10.0 0.00 0.00 0.00 77 1019.3
20210802173207 80 5 2.0 12.0 0.00 0.00 0.00 77 1019.5
20210802171657 80 62 4.0 10.0 0.00 0.00 0.00 76 1019.7
20210802170225 80 46 6.0 11.0 0.00 0.00 0.00 76 1019.8
20210802164857 79 67 4.0 11.0 0.00 0.00 0.00 78 1019.8
20210802163207 79 31 3.0 13.0 0.00 0.00 0.00 79 1020.0
20210802161626 78 111 4.0 9.0 0.00 0.00 0.00 79 1020.2
20210802160200 77 64 3.0 10.0 0.00 0.00 0.00 82 1020.2
20210802154603 77 59 4.0 10.0 0.00 0.00 0.00 83 1020.3
20210802153137 76 43 7.0 12.0 0.00 0.00 0.00 82 1020.2
20210802151548 76 88 5.0 10.0 0.00 0.00 0.00 84 1020.1
20210802150144 76 98 5.0 10.0 0.00 0.00 0.00 83 1020.2
20210802144602 75 102 4.0 11.0 0.00 0.00 0.00 87 1020.1
20210802143051 74 76 4.0 12.0 0.00 0.00 0.00 89 1020.0
20210802141555 74 67 4.0 12.0 0.00 0.00 0.00 91 1020.0
20210802140033 73 49 6.0 13.0 0.00 0.00 0.00 91 1019.9
20210802134653 73 59 7.0 11.0 0.00 0.00 0.00 91 1019.9
20210802133035 72 60 4.0 11.0 0.00 0.00 0.00 92 1019.9
20210802131549 72 37 4.0 9.0 0.00 0.00 0.00 93 1019.8
20210802130118 71 30 3.0 11.0 0.00 0.00 0.00 93 1019.7
20210802124521 71 46 2.0 5.0 0.00 0.00 0.00 94 1019.7
20210802123033 70 30 2.0 5.0 0.00 0.00 0.00 94 1019.6
20210802121611 70 25 2.0 4.0 0.00 0.00 0.00 94 1019.6
20210802120047 70 62 1.0 4.0 0.00 0.00 0.00 94 1019.4
20210802114526 69 46 1.0 5.0 0.00 0.00 0.00 95 1019.5
20210802113037 69 44 2.0 4.0 0.00 0.00 0.00 95 1019.4
20210802111535 70 68 2.0 5.0 0.00 0.00 0.00 95 1019.2
20210802110056 70 61 2.0 6.0 0.00 0.00 0.00 95 1019.2
20210802104513 70 59 1.0 5.0 0.00 0.01 0.00 95 1019.0
20210802103038 70 360 2.0 6.0 0.00 0.01 0.00 95 1018.8
20210802101538 70 5 3.0 6.0 0.00 0.01 0.00 95 1018.7
20210802100016 70 355 2.0 6.0 0.00 0.01 0.00 95 1018.7
20210802094533 70 335 3.0 5.0 0.00 0.06 0.00 95 1018.7
20210802093002 70 343 2.0 4.0 0.00 0.06 0.00 95 1018.8
20210802091502 70 333 3.0 5.0 0.00 0.06 0.00 95 1018.7
20210802090250 70 327 2.0 5.0 0.00 0.06 0.00 95 1018.9
20210802084748 70 323 2.0 5.0 0.00 0.12 0.00 95 1018.8
20210802083138 70 326 2.0 4.0 0.00 0.12 0.00 95 1018.9
20210802081819 71 308 2.0 4.0 0.00 0.12 0.00 95 1018.8
20210802080119 71 307 1.0 2.0 0.00 0.12 0.00 95 1018.8
20210802074640 72 306 0.0 3.0 0.00 0.16 0.00 95 1018.7
20210802073142 72 311 1.0 2.0 0.00 0.16 0.00 95 1018.7
20210802071630 72 311 0.0 0.0 0.00 0.16 0.00 95 1018.9
20210802070218 71 311 0.0 1.0 0.00 0.16 0.00 94 1018.8
20210802064659 71 311 0.0 4.0 0.00 0.17 0.00 94 1018.8
20210802063205 72 355 1.0 4.0 0.00 0.17 0.00 94 1018.6
20210802061639 71 346 2.0 3.0 0.00 0.17 0.00 94 1018.8
20210802060119 71 340 1.0 4.0 0.00 0.17 0.00 94 1018.9
20210802054653 71 332 2.0 10.0 0.00 0.17 0.00 95 1018.8
20210802053055 71 281 0.0 0.0 0.00 0.17 0.00 94 1018.6
20210802051620 71 281 0.0 1.0 0.00 0.17 0.00 94 1018.7
20210802050121 72 281 1.0 2.0 0.00 0.17 0.00 94 1018.6
20210802044553 72 281 0.0 2.0 0.00 0.17 0.17 94 1018.6
20210802043057 72 281 1.0 4.0 0.00 0.17 0.17 94 1018.5
20210802041559 72 293 2.0 3.0 0.00 0.17 0.17 94 1018.5
20210802040132 72 293 2.0 3.0 0.00 0.17 0.17 94 1018.5
20210802034539 73 293 0.0 2.0 0.00 0.22 0.17 93 1018.5
20210802033055 73 293 0.0 3.0 0.00 0.22 0.17 93 1018.5
20210802031556 73 293 1.0 3.0 0.00 0.22 0.17 93 1018.3
20210802030114 74 21 1.0 2.0 0.00 0.22 0.17 92 1018.2
20210802024615 74 21 0.0 1.0 0.00 0.22 0.17 92 1018.1
20210802023100 75 21 0.0 1.0 0.00 0.22 0.17 90 1018.1
20210802021540 76 21 0.0 1.0 0.00 0.22 0.17 87 1017.9
20210802020123 76 21 0.0 1.0 0.00 0.22 0.17 87 1017.9
20210802014554 77 20 0.0 1.0 0.00 0.22 0.17 85 1017.6
20210802013046 78 17 0.0 1.0 0.00 0.22 0.17 84 1017.4
20210802011544 79 17 0.0 0.0 0.00 0.22 0.17 82 1017.5
20210802010021 80 17 0.0 1.0 0.00 0.22 0.17 80 1017.3
20210802004515 81 17 0.0 1.0 0.00 0.22 0.17 78 1017.3
20210802003012 82 17 0.0 1.0 0.00 0.22 0.17 77 1017.2
20210802001539 83 17 0.0 2.0 0.00 0.22 0.17 75 1017.3
20210802000014 83 15 0.0 2.0 0.00 0.22 0.17 75 1017.3
20210801234517 83 14 1.0 4.0 0.00 0.22 0.17 73 1017.4
20210801233049 82 74 0.0 1.0 0.00 0.22 0.17 74 1017.4
20210801231504 82 74 0.0 3.0 0.00 0.22 0.17 77 1017.7
20210801230003 81 74 1.0 3.0 0.00 0.22 0.17 78 1017.8
20210801224510 81 73 3.0 5.0 0.00 0.22 0.17 74 1017.9